Location: Jackson
(35.6140°N, 88.8140°W)
Time: 13:42:27
(UTC-05:00)

ISS - Visible Passes

Search period start: 20 October 2019 00:00
Search period end: 30 October 2019 00:00
Orbit: 411 x 421 km, 51.6° (Epoch: 20 October)

Date Brightness Start Highest point End Pass type
(mag) Time Alt. Az. Time Alt. Az. Time Alt. Az.
22 Oct -0.7 05:58:44 10° SSE 06:00:42 15° SE 06:02:41 10° E visible
24 Oct -2.8 05:56:50 11° SSW 05:59:58 47° SE 06:03:13 10° ENE visible
25 Oct -1.7 05:11:17 24° SE 05:11:27 25° SE 05:14:16 10° ENE visible
26 Oct -3.5 05:58:24 35° W 05:59:23 49° NW 06:02:40 10° NE visible
27 Oct -1.9 05:12:22 28° NE 05:12:22 28° NE 05:14:06 10° NE visible
27 Oct -1.6 06:46:01 10° WNW 06:47:51 14° NNW 06:49:41 10° N visible
28 Oct -2.1 05:59:04 20° NNW 05:59:04 20° NNW 06:01:34 10° NNE visible
29 Oct -1.0 05:12:43 13° NNE 05:12:43 13° NNE 05:13:15 10° NNE visible
